#timestamp,LO_Frequency,Hit,StdDev 
1511370015.6,286046997.6,N
1511370035.5,286046996.0,N
1511370055.3,286046996.7,N
1511370075.1,286046998.8,N
1511370095.9,286047004.3,N
1511370115.7,286047007.9,Y
1511370135.5,286047014.2,P
1511370155.4,286047021.3,N
1511370175.2,286047026.8,N
1511370195.0,286047028.1,N
1511370195.9,286047028.1,N
1511370215.8,286047028.5,N
1511370235.6,286047034.1,Y
1511370255.4,286047014.2,P
1511370275.3,286047017.9,P
1511370295.1,286047017.7,P
1511370296.0,286047017.7,Y
1511370315.8,286047007.3,P
1511370335.7,286047006.3,N
1511370355.5,286047006.5,N
1511370375.3,286047009.0,N
1511370395.2,286047006.3,N
1511370415.9,286047009.7,N
1511370435.7,286047012.5,Y
1511370455.6,286047007.7,P
1511370475.4,286047011.2,P
1511370495.2,286047011.0,P
1511370515.1,286047012.4,Y
1511370516.0,286047012.4,P
1511370535.8,286046999.9,N
1511370555.6,286047002.2,N
1511370575.5,286047000.6,N
1511370595.3,286046998.6,N
1511370615.1,286047000.8,N
1511370635.8,286047001.0,N
1511370655.7,286047002.6,N
1511370675.5,286047000.5,N
1511370695.3,286047003.6,N
1511370715.2,286047001.5,N
1511370735.9,286047003.2,N
1511370755.7,286047004.2,N
1511370775.6,286047001.9,N
1511370795.4,286047002.0,N
1511370815.2,286047002.7,N
1511370835.1,286047001.0,N
1511370836.0,286047001.0,N
1511370855.8,286047002.5,N
1511370875.6,286047001.6,N
1511370895.4,286047004.1,N
1511370915.3,286047004.2,N
1511370935.1,286047003.4,N
1511370955.8,286047005.6,N
1511370975.7,286047004.1,N
1511370995.5,286047002.6,N
1511371015.3,286046998.1,N
1511371035.2,286046995.4,N
1511371055.9,286046995.9,N
1511371075.7,286046997.7,N
1511371095.6,286047000.7,N
1511371115.4,286047001.1,N
1511371135.2,286046998.8,N
1511371155.1,286046997.5,N
1511371156.0,286046997.5,N
1511371175.8,286046999.0,N
1511371195.6,286046996.9,N
1511371215.5,286046996.6,N
1511371235.3,286046996.6,N
1511371255.1,286047000.6,N
1511371275.8,286047004.3,N
1511371295.7,286047004.3,N
1511371315.5,286047001.6,N
1511371335.3,286047004.1,N
1511371355.2,286047002.0,N
1511371375.9,286047005.3,N
1511371395.7,286047008.3,N
1511371415.6,286047010.1,Y
1511371435.4,286047008.0,P
1511371455.2,286047006.4,N
1511371475.1,286047005.3,N
1511371476.0,286047005.3,N
1511371495.8,286047009.1,Y
1511371515.6,286046996.7,P
1511371535.5,286047000.7,N
1511371555.3,286047000.4,N
1511371575.1,286047000.6,N
1511371595.9,286047002.7,N
1511371615.7,286046999.4,N
1511371635.5,286046994.9,N
1511371655.4,286046998.8,N
1511371675.2,286046997.5,N
1511371695.0,286046994.9,N
1511371695.9,286046994.9,N
1511371715.8,286046998.0,N
1511371735.6,286046995.7,N
1511371755.4,286046994.8,N
1511371775.3,286046993.1,N
1511371795.1,286046990.4,N
1511371796.0,286046990.4,N
1511371815.8,286046992.8,N
1511371835.6,286047001.7,N
1511371855.5,286047009.0,N
1511371875.3,286047008.6,N
1511371895.1,286047004.2,N
1511371915.9,286047001.7,N
1511371935.7,286047003.1,N
1511371955.5,286047004.0,N
1511371975.4,286046998.7,N
1511371995.2,286046997.9,N
1511372015.0,286046990.9,N
1511372015.9,286046990.9,N
1511372035.8,286046988.8,N
1511372055.6,286046994.8,N
1511372075.4,286046991.4,N
1511372095.3,286046989.6,N
1511372115.1,286046994.0,N
1511372116.0,286046994.0,N
1511372135.8,286047003.2,N
1511372155.7,286047000.0,N
1511372175.5,286046998.2,N
1511372195.3,286047001.5,N
1511372215.1,286047003.0,N
1511372235.9,286046999.8,N
1511372255.7,286047000.0,N
1511372275.5,286047004.3,N
1511372295.4,286047001.5,N
1511372315.2,286046997.4,N
1511372335.0,286046993.8,N
1511372335.9,286046993.8,N
1511372355.8,286046994.6,N
1511372375.6,286046990.6,N
1511372395.4,286046990.2,N
1511372415.3,286046989.0,N
1511372435.1,286046994.8,N
1511372436.0,286046994.8,N
1511372455.8,286046997.6,N
1511372475.7,286046987.1,N
1511372495.5,286046991.3,N
1511372515.3,286046987.8,N
1511372535.2,286046985.6,N
1511372555.9,286046988.6,N
1511372575.8,286046994.4,N
1511372595.6,286046991.7,N
1511372615.5,286046991.5,N
1511372635.3,286046991.7,N
1511372655.1,286046993.2,N
1511372675.9,286046989.8,N
1511372695.7,286046992.9,N
1511372715.5,286046997.8,N
1511372735.4,286047002.3,N
1511372755.2,286046997.3,N
1511372775.0,286046997.9,N
1511372775.9,286046997.9,N
1511372795.7,286046997.9,N
1511372815.6,286047000.4,N
1511372835.4,286047007.1,N
1511372855.2,286047005.4,N
1511372875.1,286047008.5,N
1511372876.0,286047008.5,N
1511372895.8,286047013.0,N
1511372915.6,286047014.0,N
1511372935.5,286047010.0,N
1511372955.3,286047015.6,N
1511372975.1,286047018.0,N
1511372995.9,286047020.2,N
1511373015.7,286047019.4,N
1511373035.5,286047021.3,N
1511373055.4,286047025.1,N
1511373075.2,286047026.6,N
1511373095.0,286047021.4,N
1511373095.9,286047021.4,N
1511373115.8,286047018.3,N
1511373135.6,286047017.8,N
1511373155.4,286047020.1,N
1511373175.3,286047020.1,N
1511373195.1,286047015.5,N
1511373196.0,286047015.5,N
1511373215.8,286047014.1,N
1511373235.6,286047013.8,N
1511373255.5,286047016.8,N
1511373275.3,286047013.0,N
1511373295.1,286047014.4,N
1511373315.9,286047019.8,N
1511373335.7,286047020.7,Y
1511373355.5,286047005.0,P
1511373375.4,286047001.9,N
1511373395.2,286047005.9,N
1511373415.0,286046997.7,N
1511373415.9,286046997.7,N
1511373435.8,286046991.2,N
1511373455.6,286046987.2,N
1511373475.4,286046990.0,N
1511373495.3,286046985.6,N
1511373515.1,286046987.9,N
1511373516.0,286046987.9,N
1511373535.8,286046990.2,N
1511373555.7,286046994.5,N
1511373575.5,286046997.2,N
1511373595.3,286046990.3,N
